Location: Brachstadt
(48.6975°N, 10.6755°E)
Time: 12:25:53
(UTC+00:00)

Envisat - Pass Details

Date: 07 December 2022
Orbit: 763 x 765 km, 98.2° (Epoch: 06 February)

Event Time Altitude Azimuth Distance (km) Brightness Sun altitude
Rises 05:09:09 0° 2° (N) 3,246 6.1 -16.7°
Reaches altitude 10° 05:12:02 10° 346° (NNW) 2,315 5.2 -16.2°
Enters shadow 05:13:42 16° 329° (NNW) 1,931 4.7 -16.0°
